Location: Saint Peter Port
(49.4500°N, 2.5330°W)
Time: 10:15:26
(UTC+01:00)

Cosmos 2242 Rocket - Visible Passes

Search period start: 06 May 2016 00:00
Search period end: 16 May 2016 00:00
Orbit: 620 x 651 km, 82.5° (Epoch: 05 May)

Date Brightness Start Highest point End Pass type
(mag) Time Alt. Az. Time Alt. Az. Time Alt. Az.
06 May 5.5 04:40:31 10° N 04:44:40 34° ENE 04:48:46 10° SE visible
08 May 6.5 03:48:12 10° NNE 03:51:09 17° ENE 03:54:04 10° ESE visible
09 May 5.7 04:10:01 10° N 04:14:00 30° ENE 04:17:55 10° SE visible
10 May 4.4 04:32:15 10° N 04:36:42 55° ENE 04:41:05 10° SSE visible
11 May 6.5 03:17:55 10° NNE 03:20:26 15° ENE 03:22:54 10° E visible
12 May 5.9 03:39:33 10° NNE 03:43:19 25° ENE 03:47:02 10° SE visible
13 May 4.7 04:01:43 10° N 04:06:04 46° ENE 04:10:21 10° SSE visible
14 May 6.6 02:47:47 10° NE 02:49:42 12° ENE 02:51:36 10° E visible
14 May 3.6 04:24:08 10° N 04:28:39 90° NW 04:33:05 10° S visible
15 May 6.0 03:09:07 10° NNE 03:12:37 22° ENE 03:16:05 10° ESE visible
15 May 4.0 04:46:49 10° NNW 04:51:06 46° W 04:55:19 10° SSW visible
